User: anonymous   Login
Location: La Sioule Rivi�re
(46.3664°N, 3.3197°E)
Time: 11:23:22
(UTC+00:00)
Language:

Cosmos 1825 - Orbit

View from above orbital plane
View from above orbital plane
View from above satellite
View from above satellite

Ground track
Ground track

The orbit data is extracted from the following two-line orbital elements,

1 17566U 87024A   21023.19404409  .00000703  00000-0  30779-4 0  9995
2 17566  82.5035  63.7038 0002543 328.4254  31.6828 15.20375247853694
Epoch (UTC): 23 January 2021 04:39:25
Eccentricity: 0.0002543
inclination: 82.5035°
perigee height: 503 km
apogee height: 506 km
right ascension of ascending node: 63.7038°
argument of perigee: 328.4254°
revolutions per day: 15.20375247
mean anomaly at epoch: 31.6828°
orbit number at epoch: 85369

The dashed part of the orbit path shows where the satellite is in the earth's shadow,  

DLR